When you browse on this site, cookies collect data to enhance your experience and personalize the content and advertising you see.
Visit our Privacy Policy to learn more. By continuing to use the site, you agree to this use of cookies and data.
  • In United Kingdom
  • List of Countries
  • For 7 days
  • Water Temperature
  • Satellite Maps
  • Weather Map
  • Weather Widgets
  • user-avatar
    Login

    Hourly Weather Varadero

    Today, 23 February, Saturday

    Time Temperature Precipitation Wind Pressure Humidity
    00:00 +26°C° 0 mm 6 mps 763 mmHg 79%
    01:00 +26°C° 0 mm 6 mps 763 mmHg 80%
    02:00 +26°C° 0 mm 6 mps 763 mmHg 81%
    03:00 +24°C° 0 mm 6 mps 763 mmHg 82%
    04:00 +25°C° 0 mm 5 mps 763 mmHg 83%
    05:00 +25°C° 0 mm 5 mps 763 mmHg 84%
    06:00 +25°C° 0 mm 5 mps 763 mmHg 86%
    07:00 +25°C° 0 mm 5 mps 764 mmHg 87%
    08:00 +26°C° 0 mm 5 mps 764 mmHg 77%
    09:00 +28°C° 0 mm 5 mps 764 mmHg 68%
    10:00 +30°C° 0 mm 5 mps 765 mmHg 58%
    11:00 +33°C° 0 mm 5 mps 764 mmHg 52%
    12:00 +34°C° 0 mm 5 mps 764 mmHg 46%
    13:00 +35°C° 0 mm 4 mps 764 mmHg 40%
    14:00 +35°C° 0 mm 5 mps 763 mmHg 40%
    15:00 +35°C° 0 mm 6 mps 763 mmHg 40%
    16:00 +35°C° 0 mm 7 mps 762 mmHg 40%
    17:00 +34°C° 0 mm 7 mps 762 mmHg 48%
    18:00 +32°C° 0 mm 7 mps 762 mmHg 55%
    19:00 +29°C° 0 mm 7 mps 762 mmHg 62%
    20:00 +28°C° 0 mm 6 mps 763 mmHg 65%
    21:00 +28°C° 0 mm 5 mps 763 mmHg 68%
    22:00 +27°C° 0 mm 4 mps 763 mmHg 70%
    23:00 +26°C° 0 mm 4 mps 763 mmHg 74%

    Tomorrow, 24 February, Sunday

    Time Temperature Precipitation Wind Pressure Humidity
    00:00 +26°C° 0 mm 4 mps 764 mmHg 77%
    01:00 +26°C° 0 mm 3 mps 764 mmHg 80%
    02:00 +25°C° 0 mm 3 mps 763 mmHg 83%
    03:00 +25°C° 0 mm 3 mps 763 mmHg 85%
    04:00 +25°C° 0 mm 3 mps 763 mmHg 87%
    05:00 +24°C° 0 mm 2 mps 763 mmHg 88%
    06:00 +24°C° 0 mm 2 mps 763 mmHg 89%
    07:00 +24°C° 0 mm 2 mps 763 mmHg 90%
    08:00 +26°C° 0 mm 2 mps 764 mmHg 80%
    09:00 +28°C° 0 mm 2 mps 764 mmHg 69%
    10:00 +31°C° 0 mm 2 mps 765 mmHg 58%
    11:00 +32°C° 0 mm 2 mps 764 mmHg 53%
    12:00 +34°C° 0 mm 2 mps 764 mmHg 47%
    13:00 +36°C° 0 mm 2 mps 764 mmHg 41%
    14:00 +35°C° 0 mm 3 mps 763 mmHg 44%
    15:00 +35°C° 0 mm 4 mps 763 mmHg 47%
    16:00 +34°C° 0 mm 5 mps 762 mmHg 50%
    17:00 +32°C° 0 mm 5 mps 762 mmHg 58%
    18:00 +30°C° 0 mm 5 mps 763 mmHg 66%
    19:00 +28°C° 0 mm 4 mps 763 mmHg 74%
    20:00 +28°C° 0.1 mm 4 mps 763 mmHg 76%
    21:00 +27°C° 0.1 mm 4 mps 764 mmHg 77%
    22:00 +27°C° 0.1 mm 4 mps 764 mmHg 79%
    23:00 +27°C° 0.1 mm 4 mps 764 mmHg 80%

    Day after tomorrow, 25 February, Monday

    Time Temperature Precipitation Wind Pressure Humidity
    00:00 +26°C° 0.1 mm 4 mps 764 mmHg 81%
    01:00 +26°C° 0.1 mm 4 mps 764 mmHg 82%
    02:00 +26°C° 0 mm 4 mps 764 mmHg 84%
    03:00 +25°C° 0 mm 4 mps 763 mmHg 86%
    04:00 +25°C° 0 mm 3 mps 763 mmHg 88%
    05:00 +25°C° 0 mm 3 mps 763 mmHg 89%
    06:00 +25°C° 0 mm 3 mps 764 mmHg 90%
    07:00 +24°C° 0 mm 3 mps 764 mmHg 91%
    08:00 +26°C° 0 mm 3 mps 765 mmHg 81%
    09:00 +28°C° 0 mm 3 mps 765 mmHg 71%
    10:00 +30°C° 0 mm 4 mps 766 mmHg 62%
    11:00 +32°C° 0 mm 5 mps 765 mmHg 57%
    12:00 +32°C° 0 mm 5 mps 765 mmHg 53%
    13:00 +33°C° 0 mm 6 mps 765 mmHg 49%
    14:00 +33°C° 0 mm 6 mps 764 mmHg 52%
    15:00 +32°C° 0 mm 6 mps 764 mmHg 55%
    16:00 +30°C° 0 mm 6 mps 764 mmHg 58%
    17:00 +29°C° 0 mm 6 mps 764 mmHg 64%
    18:00 +28°C° 0 mm 6 mps 764 mmHg 70%
    19:00 +27°C° 0 mm 5 mps 764 mmHg 76%
    20:00 +26°C° 0 mm 5 mps 765 mmHg 77%
    21:00 +26°C° 0 mm 5 mps 765 mmHg 78%
    22:00 +26°C° 0 mm 5 mps 766 mmHg 79%
    23:00 +26°C° 0 mm 5 mps 766 mmHg 79%

    26 February, Tuesday

    Time Temperature Precipitation Wind Pressure Humidity
    00:00 +25°C° 0 mm 5 mps 765 mmHg 79%
    01:00 +25°C° 0 mm 5 mps 765 mmHg 79%
    02:00 +25°C° 0 mm 5 mps 765 mmHg 80%
    03:00 +25°C° 0 mm 5 mps 765 mmHg 81%
    04:00 +23°C° 0 mm 5 mps 764 mmHg 81%
    05:00 +23°C° 0 mm 5 mps 765 mmHg 82%
    06:00 +23°C° 0 mm 5 mps 765 mmHg 82%
    07:00 +23°C° 0 mm 5 mps 765 mmHg 82%
    08:00 +26°C° 0 mm 5 mps 766 mmHg 74%
    09:00 +28°C° 0 mm 5 mps 766 mmHg 65%
    10:00 +30°C° 0 mm 5 mps 766 mmHg 56%
    11:00 +32°C° 0 mm 5 mps 766 mmHg 52%
    12:00 +33°C° 0 mm 5 mps 765 mmHg 48%
    13:00 +34°C° 0 mm 6 mps 765 mmHg 43%
    14:00 +34°C° 0 mm 6 mps 764 mmHg 45%
    15:00 +34°C° 0 mm 7 mps 764 mmHg 46%
    16:00 +33°C° 0 mm 7 mps 763 mmHg 48%
    17:00 +32°C° 0 mm 7 mps 763 mmHg 54%
    18:00 +29°C° 0 mm 7 mps 764 mmHg 61%
    19:00 +28°C° 0 mm 7 mps 764 mmHg 67%
    20:00 +27°C° 0.1 mm 7 mps 764 mmHg 71%
    21:00 +27°C° 0.1 mm 6 mps 764 mmHg 75%
    22:00 +26°C° 0.1 mm 6 mps 765 mmHg 78%
    23:00 +26°C° 0.2 mm 6 mps 765 mmHg 81%

    27 February, Wednesday

    Time Temperature Precipitation Wind Pressure Humidity
    00:00 +25°C° 0.2 mm 5 mps 764 mmHg 83%
    01:00 +25°C° 0.2 mm 5 mps 764 mmHg 85%
    02:00 +25°C° 0 mm 5 mps 764 mmHg 86%
    03:00 +25°C° 0 mm 5 mps 763 mmHg 86%
    04:00 +23°C° 0 mm 5 mps 763 mmHg 86%
    05:00 +23°C° 0 mm 5 mps 763 mmHg 87%
    06:00 +23°C° 0 mm 5 mps 763 mmHg 88%
    07:00 +23°C° 0 mm 5 mps 764 mmHg 89%
    08:00 +26°C° 0 mm 5 mps 764 mmHg 77%
    09:00 +28°C° 0 mm 5 mps 764 mmHg 66%
    10:00 +30°C° 0 mm 5 mps 765 mmHg 54%
    11:00 +32°C° 0 mm 4 mps 764 mmHg 47%
    12:00 +34°C° 0 mm 4 mps 764 mmHg 40%
    13:00 +35°C° 0 mm 3 mps 763 mmHg 33%
    14:00 +35°C° 0 mm 4 mps 763 mmHg 35%
    15:00 +35°C° 0 mm 5 mps 762 mmHg 37%
    16:00 +34°C° 0 mm 6 mps 761 mmHg 39%
    17:00 +33°C° 0 mm 5 mps 762 mmHg 49%
    18:00 +30°C° 0 mm 5 mps 762 mmHg 59%
    19:00 +28°C° 0 mm 5 mps 762 mmHg 69%
    20:00 +27°C° 0 mm 4 mps 762 mmHg 71%
    21:00 +27°C° 0 mm 4 mps 763 mmHg 73%
    22:00 +26°C° 0 mm 3 mps 763 mmHg 75%
    23:00 +26°C° 0 mm 2 mps 763 mmHg 76%

    28 February, Thursday

    Time Temperature Precipitation Wind Pressure Humidity
    00:00 +25°C° 0 mm 2 mps 762 mmHg 78%
    01:00 +25°C° 0 mm 1 mps 762 mmHg 80%
    02:00 +25°C° 0 mm 1 mps 762 mmHg 81%
    03:00 +25°C° 0 mm 1 mps 761 mmHg 81%
    04:00 +24°C° 0 mm 1 mps 761 mmHg 82%
    05:00 +24°C° 0 mm 1 mps 761 mmHg 83%
    06:00 +24°C° 0 mm 1 mps 762 mmHg 84%
    07:00 +24°C° 0 mm 1 mps 762 mmHg 85%
    08:00 +27°C° 0 mm 1 mps 762 mmHg 73%
    09:00 +29°C° 0 mm 1 mps 763 mmHg 62%
    10:00 +32°C° 0 mm 1 mps 763 mmHg 50%
    11:00 +32°C° 0 mm 1 mps 762 mmHg 47%
    12:00 +34°C° 0 mm 2 mps 762 mmHg 43%
    13:00 +35°C° 0 mm 3 mps 762 mmHg 39%
    14:00 +34°C° 0 mm 3 mps 761 mmHg 41%
    15:00 +34°C° 0 mm 4 mps 761 mmHg 44%
    16:00 +33°C° 0 mm 5 mps 760 mmHg 47%
    17:00 +32°C° 0 mm 4 mps 760 mmHg 53%
    18:00 +29°C° 0 mm 4 mps 761 mmHg 59%
    19:00 +28°C° 0 mm 3 mps 761 mmHg 66%
    20:00 +27°C° 0 mm 3 mps 761 mmHg 69%
    21:00 +27°C° 0 mm 2 mps 762 mmHg 72%
    22:00 +26°C° 0 mm 2 mps 762 mmHg 75%
    23:00 +26°C° 0 mm 2 mps 762 mmHg 76%
    Show more